Home   Weather   Woodbridge   Past weeks
Flag for South Africa

Past Weather in Woodbridge, South Africa — Yesterday and Last 2 Weeks

Now
88 °F

Passing clouds.


Feels Like: 84 °F
Forecast: 90 / 59 °F
Wind: 13 mph from Northwest

Location: Bloemfontein Airport

Current Time: Oct 17, 2019 at 1:07:47 pm

Latest Report: Oct 17, 2019 at 12:00 pm


Visibility: N/A

Pressure: 30.24 "Hg

Humidity: 21%

Dew Point: 43 °F

Location of WoodbridgeLocation

Past Weather in Woodbridge — Graph

°F

Woodbridge Temperature Yesterday

Maximum temperature yesterday: 90 °F (at 2:00 pm)
Minimum temperature yesterday: 57 °F (at 6:00 am)
Average temperature yesterday: 73 °F

High & Low Weather Summary for the Past Weeks

 TemperatureHumidityPressure
High91 °F (Oct 14, 2:00 pm)77% (Oct 7, 6:00 am)30.36 "Hg (Oct 7, 6:00 am)
Low39 °F (Oct 5, 5:00 am)3% (Oct 4, 5:00 pm)29.95 "Hg (Oct 9, 2:00 pm)
Average70 °F31%30.15 "Hg
* Reported Oct 2 11:00 am — Oct 17 11:00 am, Woodbridge. Weather by CustomWeather, © 2019

Note: Actual official high and low records may vary slightly from our data, if they occured in-between our weather recording intervals... More about our weather records

Advertising

Woodbridge Weather History for the Previous 24 Hours

Scroll right to see more
 ConditionsComfort  
Time TempWeatherWind HumidityBarometerVisibility
11:00 am
Thu, Oct 17
86 °FPassing clouds.13 mph24%30.27 "HgN/A
10:00 am84 °FPassing clouds.13 mph27%30.30 "HgN/A
9:00 am79 °FPassing clouds.13 mph32%30.33 "HgN/A
8:36 am79 °FPassing clouds.8 mph32%30.33 "HgN/A
8:00 am73 °FSunny.3 mph29%30.30 "Hg10 mi
7:21 am70 °FPassing clouds.5 mph40%30.30 "HgN/A
7:00 am66 °FSunny.7 mph43%30.30 "Hg10 mi
6:12 am61 °FSunny.3 mph48%30.30 "Hg10 mi
6:00 am57 °FSunny.No wind51%30.30 "Hg10 mi
5:00 am61 °FClear.3 mph36%30.24 "Hg10 mi
4:00 am64 °FMild.9 mph40%30.24 "HgN/A
3:14 am64 °FMild.8 mph40%30.24 "HgN/A
3:00 am61 °FRefreshingly cool.2 mph42%30.24 "HgN/A
2:00 am59 °FRefreshingly cool.2 mph51%30.24 "HgN/A
1:00 am61 °FRefreshingly cool.3 mph45%30.24 "HgN/A
12:00 am63 °FMild.3 mph42%30.27 "HgN/A
11:00 pm
Wed, Oct 16
68 °FMild.5 mph40%30.27 "HgN/A
10:00 pm68 °FMild.3 mph38%30.27 "HgN/A
9:00 pm70 °FMild.2 mph33%30.27 "HgN/A
8:00 pm75 °FClear.1 mph25%30.24 "Hg10 mi
7:00 pm82 °FClear.2 mph20%30.24 "Hg10 mi
6:00 pm86 °FSunny.2 mph18%30.21 "Hg10 mi
5:00 pm88 °FPassing clouds.7 mph17%30.21 "HgN/A
4:00 pm88 °FSunny.5 mph19%30.21 "Hg10 mi
3:00 pm88 °FSunny.6 mph19%30.24 "Hg10 mi
2:00 pm90 °FPassing clouds.7 mph20%30.24 "HgN/A
Weather by CustomWeather, © 2019

See weather overview